Location: Gebel Chams
(22.2500°N, 31.5667°E)
Time: 08:59:32
(UTC+00:00)

Daily predictions for brighter satellites

Satellite Brightness Start Highest point End
(mag) Time Altitude Azimuth Time Altitude Azimuth Time Altitude Azimuth
CZ-4 R/B 1.7 16:30:49 10° SSE 16:34:51 50° ENE 16:38:55 10° N
Centaur AC-119 2.0 16:33:54 10° WNW 16:35:41 35° NNE 16:38:06 10° E
PSLV R/B 4.0 16:31:46 10° NNE 16:35:56 88° ESE 16:40:06 10° SSW
FUSE 4.5 16:30:57 10° SW 16:35:57 42° SSE 16:40:56 10° E
Cosmos 2344 4.2 16:28:43 10° S 16:36:13 34° ESE 16:42:48 10° NE
GPS 2-15 Rocket1 3.6 16:34:19 10° W 16:38:53 50° S 16:43:24 10° ESE
Cosmos 1689 Rocket 1.8 16:39:03 10° NNE 16:41:50 68° E 16:44:37 10° S
Helios 1A Rocket 4.4 16:42:01 10° ESE 16:44:49 18° ENE 16:47:38 10° NNE
Okean O Rocket 4.2 16:43:09 10° SSW 16:46:42 24° W 16:50:16 10° NW
H-2A R/B 2.0 16:44:42 10° SSE 16:49:52 89° W 16:54:54 10° NNW
Meteor 1-21 Rocket 4.3 16:44:26 10° N 16:49:58 83° W 16:55:30 10° S
Aurora 2 Rocket 2.5 16:49:47 10° WNW 16:53:00 53° N 16:56:44 11° E
CZ-2C R/B 3.7 16:52:17 10° WSW 16:53:53 12° SW 16:55:27 10° SSW
Cosmos 1464 Rocket 4.0 16:49:06 10° S 16:55:22 68° E 17:01:37 10° N
ERS-2 2.0 16:52:33 10° NNE 16:56:10 76° ESE 16:59:47 10° S
CENTAUR R/B 4.1 16:49:35 10° N 16:56:59 31° ENE 17:03:16 14° ESE
Meteor 2-10 Rocket 4.2 16:57:36 10° SSE 17:02:01 31° E 17:06:33 10° NNE
RESURS DK-1 3.5 17:02:48 10° SSE 17:05:53 21° ESE 17:08:59 10° NE
SAR-Lupe-4 4.3 17:05:23 10° N 17:08:53 55° WNW 17:12:23 10° SSW
COSMOS 2487 2.9 17:06:03 10° SSE 17:09:09 34° ESE 17:12:16 10° NE
HJ-1C 3.2 17:06:29 10° S 17:09:44 89° WSW 17:13:00 10° N
Cosmos 2322 Rocket 2.8 17:06:56 10° N 17:12:09 36° ENE 17:15:24 20° ESE
SWIFT 2.4 17:08:14 10° WSW 17:12:26 62° S 17:14:49 24° E
Abrixas rocket 2.4 17:14:34 10° WSW 17:16:26 37° NW 17:17:24 21° NNE
GPS 2-12 Rocket1 4.2 17:13:52 10° SW 17:17:31 25° SSE 17:18:41 22° SE
YAOGAN 1 3.5 17:14:29 10° S 17:18:38 48° W 17:22:49 10° NNW
Meteor 1-11 4.2 17:15:19 10° N 17:21:02 70° E 17:26:40 10° SSE
Cosmos 1758 Rocket 3.8 17:18:55 10° N 17:23:15 49° E 17:25:46 23° SSE
FALCON 9 DEB 4.3 17:22:58 10° WSW 17:26:13 44° NW 17:29:29 10° NNE
Cosmos 1602 Rocket 3.7 17:22:17 10° N 17:26:39 73° W 17:31:01 10° S
Cosmos 1441 Rocket 3.2 17:24:01 10° N 17:27:57 65° E 17:29:56 27° SSE
SL-08 RB Rocket 3.9 17:24:00 10° S 17:28:38 74° WSW 17:33:17 10° NNW
OAO 2 Rocket 3.3 17:25:13 10° WNW 17:30:15 82° SSW 17:32:30 34° SE
ARGOS 3.9 17:25:56 10° S 17:31:10 52° W 17:36:23 10° NNW
MetOp-A 4.2 17:31:24 24° SE 17:34:27 56° ENE 17:39:41 10° N
CSL-04 Rocket 3.7 17:32:35 10° S 17:37:54 76° WSW 17:43:11 10° NNW
GPS 2-14 Rocket1 2.6 17:36:14 10° W 17:40:13 70° S 17:40:45 60° SE
Meteor 2-13 Rocket 4.3 17:34:07 10° N 17:40:13 86° E 17:46:21 10° S
Cosmos 2251 Rocket 3.8 17:35:27 10° S 17:40:30 44° ESE 17:45:35 10° NNE
Cosmos 1606 Rocket 4.2 17:37:24 10° SSW 17:41:44 56° W 17:46:01 10° N
Cosmos 405 3.5 17:43:58 45° NNE 17:43:58 45° NNE 17:46:30 10° N
ATLAS 2AS CENTAUR R/B 4.3 17:45:45 10° SW 17:53:00 42° WNW 18:00:22 10° N
Cosmos 1726 Rocket 4.2 17:48:46 10° SSW 17:53:04 54° W 17:57:21 10° N
Cosmos 2360 Rocket 2.4 17:49:12 10° N 17:54:37 47° ENE 17:54:50 47° ENE
Lacrosse 4 Rocket 4.1 17:52:48 10° WNW 17:55:16 15° WSW 17:57:43 10° SW
Cosmos 2098 Rocket 4.5 17:49:30 10° N 17:56:35 51° E 17:58:12 44° ESE
Cosmos 44 3.6 17:53:12 10° SSW 17:57:58 68° WNW 18:03:05 10° NNE
NOSS 3-2 (C) 4.2 17:50:01 10° NNW 17:58:12 67° ENE 18:01:36 40° SE
MOS 1 4.4 17:59:49 51° ENE 17:59:54 51° ENE 18:05:21 10° N
IRS-1A Rocket 4.3 18:00:58 53° ENE 18:00:58 53° ENE 18:06:21 10° N
Ariane Rocket 3.4 18:01:47 46° NE 18:01:47 46° NE 18:05:55 10° N
OBJECT-B 3.2 18:08:47 19° NNW 18:08:47 19° NNW 18:09:49 10° NNW
SEDSat Delta rocket 4.4 18:00:29 10° WNW 18:06:58 49° NNE 18:08:22 42° NE
Atlas Centaur 2 3.1 17:59:30 10° WNW 18:07:59 76° NNE 18:10:35 49° E
USA 186 3.7 18:09:06 30° WNW 18:09:06 30° WNW 18:11:24 10° NNW
SL-16 R/B 3.2 18:03:20 10° NW 18:08:40 43° WSW 18:11:57 22° SSW
SJ-6B 4.0 18:12:39 36° NNW 18:12:39 36° NNW 18:15:00 10° NNW
Cosmos 1455 3.9 18:13:32 27° NNW 18:13:32 27° NNW 18:15:25 10° N
Cosmos 2237 4.1 18:06:25 10° NNW 18:12:06 88° WSW 18:12:41 73° S
Cosmos 2219 Rocket 4.0 18:08:27 10° NNE 18:10:33 18° NE 18:10:33 18° NE
Cosmos 2058 Rocket 3.7 18:12:55 47° WSW 18:13:36 53° W 18:17:51 10° N
Cosmos 1302 Rocket 4.1 18:10:00 10° N 18:14:39 67° NNE 18:14:39 67° NNE
Hubble Space Telescope 3.0 18:11:22 10° SW 18:12:33 18° SW 18:12:33 18° SW
FUSE 4.1 18:16:50 10° W 18:21:24 66° W 18:21:24 66° W
Resurs 01 Rocket 4.1 18:26:03 14° N 18:26:03 14° N 18:26:42 10° N
Cosmos 1092 Rocket 3.8 18:17:20 10° N 18:23:22 80° NE 18:23:22 80° NE
USA 238 DEB 4.5 18:28:46 10° NW 18:35:59 52° WSW 18:38:14 40° SSW
USA 238 4.5 18:28:52 10° NW 18:36:05 52° WSW 18:38:18 41° SSW
CENTAUR R/B 3.8 18:39:31 10° NW 18:47:58 53° WSW 18:50:31 42° SSW
ATLAS 3B R/B 4.3 18:46:09 10° N 18:49:40 23° NNE 18:49:40 23° NNE
Cosmos 2333 Rocket 3.7 18:49:00 10° NNW 18:51:48 30° N 18:51:48 30° N
Cosmos 2322 Rocket 4.3 18:51:52 10° WNW 18:55:49 19° W 18:57:16 18° WSW
ATLAS 3B CENTAUR R/B 4.3 19:21:21 10° W 19:42:43 71° N 19:44:32 66° NNE
